Hettinger, ND

1:16 AM MST on December 09, 2016 (GMT -0700)
Hettinger Municipal

Weather History for KHEI - January, 2014

Change the Weather History Date:

Saturday, January 11, 2014

  Actual Average Record
Temperature  
Mean Temperature 28 °F -  
Max Temperature 40 °F 28 °F 43 °F (2002)
Min Temperature 15 °F 5 °F -28 °F (2011)
Degree Days  
Heating Degree Days 37 49  
Month to date heating degree days 579 539  
Since 1 July heating degree days 4301 4118  
Moisture  
Dew Point 22 °F    
Average Humidity 75    
Maximum Humidity 88    
Minimum Humidity 64    
Precipitation  
Precipitation 0.00 in 0.01 in 0.05 in (1998)
Month to date precipitation 0.07 0.12  
Year to date precipitation 0.07 0.12  
Sea Level Pressure  
Sea Level Pressure 29.61 in    
Wind  
Wind Speed 11 mph (WSW)    
Max Wind Speed 22 mph    
Max Gust Speed 26 mph    
Visibility 10 miles    
Events      
T = Trace of Precipitation, MM = Missing Value Source: NWS Daily Summary

Daily Weather History Graph

Daily Weather History Graph

Search for Another Location

Airport or City:

Trip Planner

Search our weather history database for the weather conditions in past years. The results will help you decide how hot, cold, wet, or windy it might be!

Date:

Astronomy

Jan. 11, 2014 Rise Set
Actual Time 7:30 AM MST 4:27 PM MST
Civil Twilight 6:56 AM MST 5:00 PM MST
Nautical Twilight 6:19 AM MST 5:38 PM MST
Astronomical Twilight 5:43 AM MST 6:14 PM MST
Moon 1:14 PM MST (1/11) 3:34 AM MST (1/11)
Length of Visible Light 10h 04m
Length of Day
8h 56m
Waxing Gibbous, 83% of the Moon is Illuminated
Jan 11
Waxing Gibbous
Jan 15
Full
Jan 23
Last Quarter
Jan 30
New
Feb 6
First Quarter

Hourly Weather History & Observations

Time (MST) Temp. Windchill Dew Point Humidity Pressure Visibility Wind Dir Wind Speed Gust Speed Precip Events Conditions
12:53 AM 23.0 °F 8.3 °F 16.0 °F 74% 29.74 in 10.0 mi WNW 19.6 mph - N/A   Clear
1:53 AM 21.9 °F 7.3 °F 15.1 °F 75% 29.78 in 10.0 mi West 18.4 mph - N/A   Clear
2:53 AM 19.9 °F 7.3 °F 14.0 °F 78% 29.81 in 10.0 mi WNW 12.7 mph - N/A   Clear
3:53 AM 19.0 °F 6.1 °F 14.0 °F 81% 29.82 in 10.0 mi WNW 12.7 mph - N/A   Clear
4:53 AM 21.0 °F 8.6 °F 16.0 °F 81% 29.81 in 10.0 mi NW 12.7 mph - N/A   Clear
5:53 AM 18.0 °F 4.8 °F 14.0 °F 84% 29.83 in 10.0 mi WNW 12.7 mph - N/A   Clear
6:53 AM 16.0 °F 2.3 °F 12.0 °F 84% 29.82 in 10.0 mi West 12.7 mph - N/A   Clear
7:53 AM 16.0 °F 2.9 °F 12.0 °F 84% 29.82 in 10.0 mi West 11.5 mph - N/A   Clear
8:53 AM 18.0 °F 12.7 °F 12.9 °F 81% 29.82 in 10.0 mi NW 3.5 mph - N/A   Clear
9:53 AM 23.0 °F 12.4 °F 18.0 °F 81% 29.82 in 10.0 mi WSW 10.4 mph - N/A   Clear
10:53 AM 26.1 °F 21.9 °F 19.9 °F 78% 29.76 in 10.0 mi SW 3.5 mph - N/A   Clear
11:53 AM 30.0 °F 25.2 °F 21.9 °F 72% 29.69 in 10.0 mi South 4.6 mph - N/A   Clear
12:53 PM 32.0 °F 24.2 °F 24.1 °F 73% 29.63 in 10.0 mi South 9.2 mph - N/A   Clear
1:53 PM 35.1 °F 30.1 °F 26.1 °F 70% 29.57 in 10.0 mi SE 5.8 mph - N/A   Clear
2:53 PM 37.0 °F 28.9 °F 26.1 °F 65% 29.53 in 10.0 mi South 12.7 mph - N/A   Clear
3:53 PM 36.0 °F 25.6 °F 26.1 °F 67% 29.50 in 10.0 mi South 18.4 mph - N/A   Clear
4:53 PM 36.0 °F 27.1 °F 26.1 °F 67% 29.47 in 10.0 mi South 13.8 mph - N/A   Mostly Cloudy
5:53 PM 36.0 °F 26.0 °F 27.0 °F 70% 29.43 in 10.0 mi South 17.3 mph - N/A   Scattered Clouds
6:53 PM 37.0 °F 28.9 °F 28.0 °F 70% 29.40 in 10.0 mi South 12.7 mph - N/A   Clear
7:53 PM 37.0 °F 31.0 °F 28.9 °F 73% 29.37 in 10.0 mi SSW 8.1 mph - N/A   Clear
8:53 PM 37.9 °F 33.5 °F 28.9 °F 70% 29.36 in 10.0 mi SSW 5.8 mph - N/A   Clear
9:53 PM 39.9 °F 34.5 °F 30.0 °F 68% 29.34 in 10.0 mi WSW 8.1 mph - N/A   Clear
10:27 PM 39.9 °F 30.8 °F 30.9 °F 70% 29.32 in 10.0 mi West 18.4 mph - N/A   Scattered Clouds
10:53 PM 39.9 °F 32.5 °F 30.9 °F 70% 29.38 in 10.0 mi WNW 12.7 mph - N/A   Clear
11:53 PM 36.0 °F 30.3 °F 30.0 °F 79% 29.38 in 10.0 mi SW 6.9 mph - N/A   Clear